Chickasha, OK

10:42 PM CDT on August 28, 2016 (GMT -0500)
Chickasha Municipal

Weather History for KCHK - April, 2014

Change the Weather History Date:

Tuesday, April 8, 2014

  Actual Average Record
Temperature  
Mean Temperature 52 °F -  
Max Temperature 68 °F 73 °F 89 °F (2011)
Min Temperature 37 °F 48 °F 30 °F (1964)
Degree Days  
Heating Degree Days 12    
Growing Degree Days 2 (Base 50)    
Moisture  
Dew Point 37 °F    
Average Humidity 60    
Maximum Humidity 93    
Minimum Humidity 32    
Precipitation  
Precipitation 0.00 in - - ()
Sea Level Pressure  
Sea Level Pressure 30.11 in    
Wind  
Wind Speed 12 mph (NNW)    
Max Wind Speed 25 mph    
Max Gust Speed 32 mph    
Visibility 10 miles    
Events      
Averages and records for this station are not official NWS values.
T = Trace of Precipitation, MM = Missing Value Source: NWS Daily Summary

Daily Weather History Graph

Daily Weather History Graph

Search for Another Location

Airport or City:

Trip Planner

Search our weather history database for the weather conditions in past years. The results will help you decide how hot, cold, wet, or windy it might be!

Date:

Astronomy

Apr. 08, 2014 Rise Set
Actual Time 7:08 AM CDT 7:58 PM CDT
Civil Twilight 6:43 AM CDT 8:24 PM CDT
Nautical Twilight 6:12 AM CDT 8:55 PM CDT
Astronomical Twilight 5:41 AM CDT 9:26 PM CDT
Moon 2:06 PM CDT (4/8) 3:09 AM CDT (4/8)
Length of Visible Light 13h 41m
Length of Day
12h 49m
Waxing Gibbous, 63% of the Moon is Illuminated
Apr 8
Waxing Gibbous
Apr 15
Full
Apr 22
Last Quarter
Apr 29
New
May 6
First Quarter

Hourly Weather History & Observations

Time (CDT) Temp. Windchill Dew Point Humidity Pressure Visibility Wind Dir Wind Speed Gust Speed Precip Events Conditions
12:15 AM 44.6 °F 39.7 °F 42.8 °F 93% 30.03 in 10.0 mi NW 9.2 mph - N/A   Clear
12:35 AM 46.4 °F 41.1 °F 41.0 °F 81% 30.03 in 10.0 mi NW 11.5 mph - N/A   Clear
12:55 AM 46.4 °F 40.7 °F 41.0 °F 81% 30.03 in 10.0 mi NW 12.7 mph - N/A   Clear
1:15 AM 46.4 °F 41.5 °F 41.0 °F 81% 30.03 in 10.0 mi NW 10.4 mph - N/A   Clear
1:35 AM 46.4 °F 41.1 °F 41.0 °F 81% 30.03 in 10.0 mi NW 11.5 mph - N/A   Clear
1:55 AM 46.4 °F 41.1 °F 41.0 °F 81% 30.04 in 10.0 mi NW 11.5 mph - N/A   Clear
2:15 AM 46.4 °F 40.7 °F 41.0 °F 81% 30.04 in 10.0 mi NW 12.7 mph - N/A   Clear
2:35 AM 46.4 °F 40.7 °F 41.0 °F 81% 30.05 in 10.0 mi NW 12.7 mph - N/A   Clear
2:55 AM 44.6 °F 39.2 °F 39.2 °F 81% 30.05 in 10.0 mi NW 10.4 mph - N/A   Clear
3:15 AM 42.8 °F 37.5 °F 37.4 °F 81% 30.05 in 10.0 mi NW 9.2 mph - N/A   Clear
3:35 AM 42.8 °F 37.5 °F 37.4 °F 81% 30.05 in 10.0 mi NW 9.2 mph - N/A   Scattered Clouds
3:55 AM 42.8 °F 36.6 °F 37.4 °F 81% 30.04 in 10.0 mi NNW 11.5 mph - N/A   Clear
4:15 AM 44.6 °F 39.7 °F 37.4 °F 76% 30.06 in 10.0 mi NW 9.2 mph - N/A   Clear
4:35 AM 42.8 °F 37.5 °F 37.4 °F 81% 30.05 in 10.0 mi NW 9.2 mph - N/A   Clear
4:55 AM 42.8 °F 38.6 °F 37.4 °F 81% 30.06 in 10.0 mi NW 6.9 mph - N/A   Clear
5:15 AM 41.0 °F 37.1 °F 37.4 °F 87% 30.05 in 10.0 mi NW 5.8 mph - N/A   Clear
5:35 AM 39.2 °F 35.9 °F 35.6 °F 87% 30.06 in 10.0 mi West 4.6 mph - N/A   Clear
5:55 AM 37.4 °F 32.1 °F 35.6 °F 93% 30.06 in 10.0 mi West 6.9 mph - N/A   Clear
6:15 AM 37.4 °F 30.8 °F 35.6 °F 93% 30.07 in 10.0 mi WNW 9.2 mph - N/A   Clear
6:35 AM 39.2 °F 33.0 °F 35.6 °F 87% 30.08 in 10.0 mi WNW 9.2 mph - N/A   Clear
6:55 AM 39.2 °F 32.5 °F 35.6 °F 87% 30.09 in 10.0 mi WNW 10.4 mph - N/A   Clear
7:15 AM 39.2 °F 32.5 °F 35.6 °F 87% 30.09 in 10.0 mi NW 10.4 mph - N/A   Clear
7:35 AM 39.2 °F 31.2 °F 35.6 °F 87% 30.11 in 10.0 mi NW 13.8 mph - N/A   Clear
7:55 AM 41.0 °F 33.9 °F 35.6 °F 81% 30.11 in 10.0 mi NW 12.7 mph - N/A   Clear
8:15 AM 42.8 °F 35.4 °F 37.4 °F 81% 30.12 in 10.0 mi NNW 15.0 mph - N/A   Clear
8:35 AM 46.4 °F 39.8 °F 37.4 °F 71% - 10.0 mi NNW 16.1 mph - N/A   Clear
8:55 AM 48.2 °F - 39.2 °F 71% 30.14 in 10.0 mi NNW 18.4 mph 23.0 mph N/A   Clear
9:15 AM 50.0 °F - 39.2 °F 66% 30.15 in 10.0 mi NNW 17.3 mph 23.0 mph N/A   Clear
9:35 AM 51.8 °F - 37.4 °F 58% 30.15 in 10.0 mi NNW 23.0 mph 31.1 mph N/A   Clear
9:55 AM 53.6 °F - 39.2 °F 58% 30.16 in 10.0 mi NNW 23.0 mph - N/A   Clear
10:15 AM 53.6 °F - 37.4 °F 54% 30.16 in 10.0 mi North 21.9 mph 27.6 mph N/A   Clear
10:55 AM 55.4 °F - 35.6 °F 47% 30.17 in 10.0 mi North 23.0 mph 28.8 mph N/A   Clear
11:15 AM 59.0 °F - 35.6 °F 42% 30.18 in 10.0 mi North 24.2 mph 31.1 mph N/A   Clear
11:35 AM 59.0 °F - 35.6 °F 42% 30.17 in 10.0 mi North 24.2 mph 29.9 mph N/A   Clear
11:55 AM 60.8 °F - 33.8 °F 36% 30.18 in 10.0 mi North 21.9 mph 28.8 mph N/A   Clear
12:15 PM 60.8 °F - 35.6 °F 39% 30.17 in 10.0 mi NNW 19.6 mph 31.1 mph N/A   Clear
12:35 PM 60.8 °F - 33.8 °F 36% 30.17 in 10.0 mi North 24.2 mph 32.2 mph N/A   Clear
12:55 PM 62.6 °F - 33.8 °F 34% 30.16 in 10.0 mi North 25.3 mph - N/A   Clear
1:15 PM 62.6 °F - 35.6 °F 37% 30.16 in 10.0 mi North 20.7 mph 26.5 mph N/A   Clear
1:35 PM 62.6 °F - 35.6 °F 37% 30.16 in 10.0 mi North 20.7 mph 25.3 mph N/A   Clear
1:55 PM 62.6 °F - 35.6 °F 37% 30.15 in 10.0 mi North 18.4 mph 29.9 mph N/A   Clear
2:15 PM 64.4 °F - 35.6 °F 34% 30.15 in 10.0 mi North 20.7 mph 26.5 mph N/A   Scattered Clouds
2:35 PM 64.4 °F - 35.6 °F 34% 30.14 in 10.0 mi North 19.6 mph 25.3 mph N/A   Clear
2:55 PM 66.2 °F - 35.6 °F 32% 30.13 in 10.0 mi North 21.9 mph 28.8 mph N/A   Scattered Clouds
3:35 PM 68.0 °F - 37.4 °F 33% 30.11 in 10.0 mi North 15.0 mph 19.6 mph N/A   Clear
3:55 PM 68.0 °F - 37.4 °F 33% 30.11 in 10.0 mi North 12.7 mph 21.9 mph N/A   Clear
4:15 PM 68.0 °F - 37.4 °F 33% 30.10 in 10.0 mi North 15.0 mph 23.0 mph N/A   Clear
4:35 PM 68.0 °F - 37.4 °F 33% 30.10 in 10.0 mi North 13.8 mph 19.6 mph N/A   Clear
4:55 PM 68.0 °F - 37.4 °F 33% 30.10 in 10.0 mi NNE 11.5 mph 19.6 mph N/A   Clear
5:15 PM 68.0 °F - 37.4 °F 33% 30.09 in 10.0 mi North 12.7 mph 19.6 mph N/A   Clear
5:35 PM 68.0 °F - 37.4 °F 33% 30.09 in 10.0 mi North 12.7 mph - N/A   Clear
5:55 PM 68.0 °F - 37.4 °F 33% 30.09 in 10.0 mi NNE 12.7 mph - N/A   Clear
6:15 PM 68.0 °F - 37.4 °F 33% 30.10 in 10.0 mi North 10.4 mph - N/A   Clear
6:35 PM 66.2 °F - 35.6 °F 32% 30.10 in 10.0 mi NNE 11.5 mph - N/A   Clear
6:55 PM 66.2 °F - 37.4 °F 35% 30.10 in 10.0 mi NNE 10.4 mph - N/A   Clear
7:15 PM 62.6 °F - 35.6 °F 37% 30.11 in 10.0 mi NE 8.1 mph - N/A   Clear
7:35 PM 60.8 °F - 35.6 °F 39% 30.11 in 10.0 mi NNE 8.1 mph - N/A   Clear
7:55 PM 59.0 °F - 35.6 °F 42% 30.12 in 10.0 mi NNE 5.8 mph - N/A   Clear
8:15 PM 59.0 °F - 35.6 °F 42% 30.12 in 10.0 mi NE 3.5 mph - N/A   Clear
8:35 PM 55.4 °F - 37.4 °F 51% 30.13 in 10.0 mi Calm Calm - N/A   Clear
8:55 PM 53.6 °F - 35.6 °F 51% 30.14 in 10.0 mi ENE 3.5 mph - N/A   Clear
9:15 PM 53.6 °F - 35.6 °F 51% 30.14 in 10.0 mi NNE 4.6 mph - N/A   Clear
9:35 PM 53.6 °F - 35.6 °F 51% 30.14 in 10.0 mi NE 6.9 mph - N/A   Clear
9:55 PM 48.2 °F - 37.4 °F 66% 30.16 in 10.0 mi West 4.6 mph - N/A   Clear
10:15 PM 50.0 °F - 37.4 °F 62% 30.16 in 10.0 mi West 4.6 mph - N/A   Clear
10:35 PM 48.2 °F - 39.2 °F 71% 30.16 in 10.0 mi Calm Calm - N/A   Clear
10:55 PM 48.2 °F - 39.2 °F 71% 30.16 in 10.0 mi West 3.5 mph - N/A   Clear
11:15 PM 46.4 °F - 39.2 °F 76% 30.15 in 10.0 mi Calm Calm - N/A   Clear
11:35 PM 46.4 °F - 37.4 °F 71% 30.14 in 10.0 mi Calm Calm - N/A   Clear
11:55 PM 46.4 °F 44.3 °F 37.4 °F 71% 30.14 in 10.0 mi West 4.6 mph - N/A   Clear